TimePST,TemperatureF,Dew PointF,Humidity,Sea Level PressureIn,VisibilityMPH,Wind Direction,Wind SpeedMPH,Gust SpeedMPH,PrecipitationIn,Events,Conditions,WindDirDegrees,DateUTC
12:53 AM,43.0,39.9,89,30.07,10.0,Calm,Calm,-,N/A,,Clear,0,2013-03-09 08:53:00
1:53 AM,45.0,41.0,86,30.11,10.0,NNE,5.8,-,N/A,,Clear,20,2013-03-09 09:53:00
2:53 AM,44.1,41.0,89,30.12,10.0,Calm,Calm,-,N/A,,Partly Cloudy,0,2013-03-09 10:53:00
3:53 AM,43.0,41.0,93,30.14,10.0,East,3.5,-,N/A,,Clear,90,2013-03-09 11:53:00
4:53 AM,41.0,39.0,93,30.15,9.0,Calm,Calm,-,N/A,,Clear,0,2013-03-09 12:53:00
5:53 AM,39.0,37.9,96,30.18,10.0,Calm,Calm,-,N/A,,Clear,0,2013-03-09 13:53:00
6:53 AM,37.0,37.0,100,30.22,9.0,Calm,Calm,-,N/A,,Clear,0,2013-03-09 14:53:00
7:53 AM,46.9,43.0,86,30.26,8.0,Calm,Calm,-,N/A,,Clear,0,2013-03-09 15:53:00
8:53 AM,51.1,44.1,77,30.27,10.0,NNW,5.8,-,N/A,,Clear,340,2013-03-09 16:53:00
9:53 AM,55.9,45.0,67,30.27,10.0,NNW,8.1,-,N/A,,Clear,340,2013-03-09 17:53:00
10:53 AM,60.1,42.1,51,30.27,10.0,NNW,15.0,-,N/A,,Clear,330,2013-03-09 18:53:00
11:53 AM,64.0,37.0,37,30.27,10.0,NW,15.0,-,N/A,,Clear,310,2013-03-09 19:53:00
12:53 PM,68.0,34.0,28,30.26,10.0,NW,17.3,25.3,N/A,,Clear,320,2013-03-09 20:53:00
1:53 PM,69.1,30.0,23,30.25,10.0,NW,15.0,19.6,N/A,,Clear,320,2013-03-09 21:53:00
2:53 PM,71.1,30.0,22,30.23,10.0,NW,15.0,20.7,N/A,,Clear,320,2013-03-09 22:53:00
3:53 PM,70.0,28.9,22,30.23,10.0,NW,15.0,-,N/A,,Clear,310,2013-03-09 23:53:00
4:53 PM,69.1,28.0,22,30.24,10.0,NNW,11.5,-,N/A,,Clear,330,2013-03-10 00:53:00
5:53 PM,64.9,30.0,27,30.25,10.0,NNW,10.4,-,N/A,,Clear,330,2013-03-10 01:53:00
6:53 PM,59.0,30.0,33,30.26,10.0,NNW,5.8,-,N/A,,Clear,330,2013-03-10 02:53:00
7:53 PM,61.0,28.0,29,30.27,10.0,North,4.6,-,N/A,,Clear,350,2013-03-10 03:53:00
8:53 PM,54.0,32.0,43,30.27,10.0,NE,5.8,-,N/A,,Clear,40,2013-03-10 04:53:00
9:53 PM,48.9,33.1,54,30.30,10.0,Calm,Calm,-,N/A,,Clear,0,2013-03-10 05:53:00
10:53 PM,51.1,33.1,50,30.30,10.0,ENE,6.9,-,N/A,,Clear,70,2013-03-10 06:53:00
11:53 PM,51.1,34.0,52,30.30,10.0,North,6.9,-,N/A,,Clear,10,2013-03-10 07:53:00